User: anonymous   Login
Location: Unspecified
(0.0000°N, 0.0000°E)
Time: 19:22:38
(UTC+00:00)
Language:

STARLINK-31810 - Orbit

View from above orbital plane
View from above orbital plane
View from above satellite
View from above satellite

Ground track
Ground track

The orbit is defined by the following mean orbital elements,

1 59799U          26145.45624073 +.00000000 +00000-0 +55654-4 0 00000
2 59799  43.0008 135.5458 0001238 269.7024  90.3685 15.27593465    09
Epoch (UTC): 25 May 2026 10:56:59
Eccentricity: 0.0001238
inclination: 43.0008°
perigee height: 482 km
apogee height: 484 km
right ascension of ascending node: 135.5458°
argument of perigee: 269.7024°
revolutions per day: 15.27593465
mean anomaly at epoch: 90.3685°

The dashed part of the orbit path shows where the satellite is in the earth's shadow,  

DLR